User: anonymous   Login
Location: Augirein
(42.9320°N, 0.9181°E)
Time: 03:56:40
(UTC+00:00)
Language:

ERBS - Orbit

View from above orbital plane
View from above orbital plane
View from above satellite
View from above satellite

Ground track
Ground track

The orbit data is extracted from the following two-line orbital elements,

1 15354U 84108B   21264.39977696  .00005600  00000-0  91978-4 0  9999
2 15354  57.0036 227.3901 0006441 173.8646 186.2494 15.54046193 39111
Epoch (UTC): 21 September 2021 09:35:40
Eccentricity: 0.0006441
inclination: 57.0036°
perigee height: 400 km
apogee height: 409 km
right ascension of ascending node: 227.3901°
argument of perigee: 173.8646°
revolutions per day: 15.54046193
mean anomaly at epoch: 186.2494°
orbit number at epoch: 3911

The dashed part of the orbit path shows where the satellite is in the earth's shadow,  

DLR